Theta_e
279 279 280 280 280 281 281 280 279 278 278 277 277 277 276 275 274 275 275 277 278 278 279 281 283 285 286 287 289 292 294 295 296 296 294 293 294 294 294 297 300 301 302 303 305 311 316 316 316 316 316 315 315 315 315 314 314 314 315 316 316 316 316 315 314 314 314 315 316 317 317 316 316 316 315 314 313 312 310 311 313 315 317 317 317
279 279 279 280 281 281 281 280 279 278 277 277 276 276 276 275 274 274 274 276 277 278 279 281 282 284 285 287 288 290 293 294 295 295 295 294 294 294 293 295 299 301 302 303 304 309 315 316 315 316 315 315 315 315 315 314 313 314 314 315 316 316 316 315 314 313 313 313 314 316 317 316 315 315 315 314 313 312 311 313 315 316 317 317 317
278 278 279 280 280 280 280 279 279 278 277 276 276 275 275 275 274 273 274 275 277 278 279 280 281 283 285 286 286 288 292 294 294 294 294 294 294 294 293 294 297 300 302 302 303 307 314 316 315 316 315 315 315 315 315 314 313 313 313 314 315 316 315 315 314 314 315 313 313 315 317 316 314 313 313 314 313 312 312 314 315 316 316 316 316
278 278 278 280 280 280 279 278 278 278 277 276 275 275 274 274 274 273 273 274 275 277 279 279 280 282 284 285 286 287 290 293 294 293 293 293 293 294 293 293 296 300 301 302 303 307 313 315 315 316 315 315 315 315 315 314 313 313 313 313 314 315 316 316 315 315 316 315 313 314 316 315 312 310 311 313 314 313 313 315 316 315 315 315 315
278 278 278 279 281 281 280 278 277 277 276 276 275 274 273 274 274 273 273 274 275 277 279 279 279 281 282 284 285 286 288 290 292 293 293 293 293 293 294 293 295 299 301 302 303 306 312 315 315 315 315 314 315 315 315 314 313 313 313 313 313 314 315 316 316 315 316 316 315 314 314 313 311 309 311 313 313 313 314 315 316 315 315 316 315
277 277 278 279 279 280 279 277 276 275 275 275 274 273 272 272 273 273 273 274 275 276 277 278 279 279 281 283 284 286 288 289 290 291 292 292 292 293 293 293 294 298 301 302 303 305 311 315 315 315 315 314 315 315 314 314 313 313 313 313 314 314 315 315 315 315 316 317 316 315 314 313 311 311 312 313 313 313 314 315 316 315 315 316 316
277 277 278 279 279 278 277 276 275 275 274 274 273 272 271 271 272 272 272 273 274 274 275 277 279 279 280 282 283 284 287 288 289 290 291 291 291 292 293 293 294 297 301 302 303 304 310 315 315 315 315 315 315 315 314 314 313 313 312 312 313 314 314 314 315 315 315 316 317 315 314 313 311 312 313 313 314 314 314 316 316 316 316 316 316
277 278 279 280 281 280 278 277 275 274 273 273 272 270 270 271 270 270 271 272 272 274 276 277 279 280 280 282 283 283 286 288 289 290 291 291 291 291 292 292 293 296 300 302 303 303 307 313 315 315 315 315 314 314 314 313 313 312 312 312 311 312 312 313 313 314 314 315 316 315 315 314 313 313 313 314 315 315 315 315 315 316 316 316 315
277 278 279 280 280 279 277 275 274 274 273 273 272 270 270 270 270 271 271 271 272 274 276 277 279 280 281 282 282 283 285 287 289 290 291 291 291 292 292 292 293 295 299 302 303 302 305 311 314 315 315 315 314 314 314 314 313 312 312 311 311 311 312 312 312 313 314 314 313 314 314 314 314 314 314 314 315 315 315 315 315 315 316 315 315
277 278 280 280 279 278 278 277 276 275 273 271 270 270 270 270 270 271 271 271 272 273 275 276 277 278 280 281 282 282 284 286 288 290 290 290 290 291 292 292 292 294 297 301 303 303 304 309 314 314 315 315 314 314 314 314 313 313 312 311 311 311 312 313 313 313 313 312 312 312 313 313 314 314 314 314 314 314 314 315 315 315 314 314 314
278 279 279 280 280 279 277 275 274 272 272 271 269 269 269 270 270 270 271 271 272 273 274 275 275 277 279 281 282 282 283 285 287 289 290 290 290 290 291 292 292 293 296 300 303 303 304 308 313 314 314 315 314 314 314 314 313 313 313 311 310 310 311 312 313 314 313 312 312 313 313 313 313 313 314 314 313 314 314 314 314 314 314 314 313
278 278 279 280 280 278 276 275 274 273 274 274 272 270 270 270 270 270 271 271 272 273 274 275 276 278 279 280 281 282 283 284 286 288 289 289 290 290 290 291 291 292 295 299 302 303 304 308 312 313 314 314 314 313 313 313 313 313 313 312 311 311 311 311 312 313 314 313 313 314 314 314 314 313 313 313 314 314 314 314 315 315 315 315 314
277 278 279 280 280 279 276 274 272 271 271 272 272 272 271 271 271 271 271 271 272 273 274 275 276 277 278 279 280 281 282 284 285 287 288 289 289 290 289 290 291 292 294 298 302 303 304 307 311 313 313 313 313 313 313 313 313 312 312 312 312 312 311 310 310 312 314 314 314 314 314 314 315 314 315 314 314 315 314 314 314 315 315 315 314
277 278 279 280 280 279 276 273 272 273 273 271 270 270 271 272 272 272 272 272 273 274 275 275 276 277 277 278 280 281 281 282 284 285 286 287 288 289 289 290 291 291 293 297 301 303 303 306 310 313 313 312 312 312 312 312 312 311 311 312 312 311 311 310 310 310 312 313 313 313 314 314 315 315 315 314 314 314 314 314 314 314 314 314 313
277 278 279 280 280 278 277 275 275 276 275 274 272 271 271 272 272 272 273 273 273 274 275 275 276 278 278 279 280 281 281 282 283 284 286 287 288 289 289 290 290 291 293 296 300 303 303 305 309 313 313 312 312 312 312 312 311 311 310 310 311 311 310 310 309 309 309 309 310 311 312 313 313 313 312 311 312 313 312 312 313 314 314 313 313
277 278 279 280 279 279 279 277 274 273 273 274 273 273 273 273 273 273 273 274 275 274 274 275 276 277 279 279 280 280 281 281 282 284 285 287 289 290 290 290 291 291 292 295 299 302 303 304 308 312 313 312 312 312 311 311 311 310 310 310 310 310 310 309 309 309 309 308 308 309 309 310 310 310 310 310 311 311 311 312 313 313 313 312 311
276 278 279 280 280 280 279 276 274 274 273 272 272 272 272 274 275 274 274 275 276 276 276 276 276 277 278 279 280 280 281 281 282 284 285 286 288 290 291 290 291 291 292 295 299 302 304 304 307 311 313 313 312 312 311 311 311 310 310 309 309 309 309 309 309 310 310 309 309 310 309 309 309 309 309 309 309 308 310 312 312 312 311 310 308
276 278 279 280 280 280 278 276 275 275 274 273 272 272 272 273 275 276 276 276 277 277 277 277 278 278 279 280 280 281 281 281 282 284 285 286 287 289 290 290 290 290 292 295 298 302 304 304 306 311 313 313 313 312 311 312 312 311 310 309 309 309 309 309 309 309 310 310 310 310 310 309 309 309 308 308 306 306 307 309 309 310 310 309 309
276 278 279 279 280 279 278 276 276 275 274 273 272 271 272 274 276 276 277 277 278 278 278 277 278 279 280 281 281 281 281 282 283 285 286 287 288 288 289 289 290 290 292 295 299 302 304 305 306 310 313 313 312 312 312 312 312 311 310 309 309 309 310 310 310 309 309 309 309 309 309 309 309 309 309 308 307 307 307 307 306 306 308 308 308
276 277 278 279 280 279 278 276 275 275 273 272 272 272 273 274 276 277 278 279 279 279 279 279 279 280 281 281 281 282 282 283 285 287 288 288 289 289 290 290 290 291 292 295 299 302 304 305 306 309 312 313 312 312 312 313 312 311 310 310 310 310 311 311 310 310 309 309 308 309 309 309 309 309 308 307 307 307 306 306 304 303 304 306 307
276 277 278 279 279 279 278 275 274 274 273 271 271 273 274 275 276 277 278 279 279 280 281 281 281 281 282 282 282 283 284 285 287 289 289 290 290 290 291 291 292 292 294 296 299 302 304 305 306 309 311 312 312 312 313 313 312 310 310 311 311 311 311 311 310 310 309 309 309 308 309 309 309 308 307 306 306 306 305 304 303 303 302 303 305
276 277 278 279 279 279 278 276 274 275 274 272 272 274 276 277 276 277 278 279 280 281 282 282 282 283 283 283 284 285 286 286 288 289 290 290 291 291 291 292 292 293 295 297 299 301 304 305 306 308 311 312 313 313 312 312 312 311 311 311 312 312 312 311 310 309 308 309 309 309 309 309 308 308 307 307 306 306 305 304 303 303 302 301 303
276 277 278 278 279 279 279 277 275 275 275 274 274 275 276 276 277 278 279 279 280 282 283 283 283 284 284 284 285 286 287 288 288 289 290 290 291 291 292 293 293 294 296 298 300 302 303 305 306 308 310 312 312 312 312 312 312 312 311 311 311 312 312 311 310 309 309 309 309 309 308 308 307 307 306 306 306 305 305 304 303 302 301 301 302
276 277 278 278 278 278 279 277 275 275 275 275 275 276 275 276 277 278 278 278 279 281 283 284 285 285 285 286 287 287 288 289 289 289 290 291 291 292 293 294 295 295 296 298 300 302 303 305 306 308 310 311 312 312 312 312 312 312 311 311 311 311 311 311 310 310 310 309 309 309 308 308 307 307 306 306 306 305 305 304 303 302 300 300 301
276 277 277 278 277 277 278 278 277 277 277 276 275 276 275 275 276 276 276 277 278 280 281 283 285 286 287 287 288 289 289 290 290 291 291 292 293 294 295 295 296 297 298 298 300 301 303 305 306 308 309 310 311 311 311 311 312 312 311 310 309 308 309 310 310 310 310 310 310 309 308 307 306 306 306 305 305 305 305 304 302 300 300 300 300
275 276 277 277 277 276 277 277 277 277 277 277 277 276 274 273 274 274 274 275 277 278 280 283 285 287 288 289 290 291 291 291 292 293 294 294 295 296 296 297 298 298 298 299 300 301 303 304 306 308 309 309 311 311 311 311 311 310 310 309 307 307 308 309 309 310 310 310 309 308 307 306 305 304 304 304 304 305 305 303 301 300 299 300 300
275 276 276 277 276 276 275 276 277 277 277 276 277 277 275 273 272 272 272 273 275 276 278 281 285 287 289 290 291 291 292 292 293 294 294 295 296 297 297 298 298 299 299 299 300 301 303 304 306 308 309 309 310 311 311 311 309 308 307 307 307 307 308 309 310 310 310 309 309 307 305 304 303 303 303 304 304 305 305 304 301 299 299 299 299
274 275 276 276 276 275 274 275 276 277 277 276 275 275 274 272 271 272 272 271 272 274 276 278 281 285 287 289 290 291 292 292 292 293 294 295 296 297 297 298 299 299 299 300 301 302 303 305 306 307 308 308 309 309 310 309 307 306 306 305 305 307 308 308 308 308 309 309 308 306 304 303 303 303 303 304 304 304 304 303 301 300 299 299 298
274 275 275 275 275 274 274 275 275 276 277 276 276 275 273 270 269 271 273 272 272 273 275 276 278 281 285 288 289 289 291 292 293 293 294 295 296 297 298 298 299 300 300 301 302 303 303 305 306 307 307 307 307 307 307 307 306 306 306 305 305 306 306 306 305 306 308 308 307 306 305 304 303 303 302 303 303 303 303 302 301 300 299 298 298
273 274 275 275 274 274 274 274 274 275 275 275 276 278 277 274 271 270 272 274 274 274 275 276 277 280 284 287 288 289 289 291 293 294 294 295 296 297 298 299 300 300 301 302 303 303 304 304 305 306 306 307 307 306 306 306 306 305 304 304 304 305 306 306 306 306 307 307 306 305 305 304 303 302 302 302 301 301 301 301 300 299 299 298 298
272 273 274 274 274 273 273 273 274 274 274 274 274 276 277 278 277 274 273 274 276 277 278 279 279 281 284 285 287 289 290 292 293 294 295 296 297 298 299 300 300 301 303 303 303 303 304 304 305 306 306 306 306 305 305 305 305 304 303 302 303 305 306 306 306 305 305 305 305 305 304 304 304 303 302 301 300 300 299 299 299 299 299 298 298
272 273 273 273 273 273 272 272 273 274 273 273 273 273 273 276 278 278 278 276 275 276 278 280 281 282 284 285 286 288 290 292 294 295 296 296 297 298 299 299 300 302 303 303 302 303 303 304 304 305 305 305 305 305 305 305 304 304 303 302 302 304 305 306 306 305 305 305 304 304 303 303 303 303 302 301 299 299 298 298 298 299 299 298 298
271 272 273 273 273 273 272 272 273 273 272 271 271 271 271 270 270 273 278 280 279 278 279 280 280 280 283 285 286 286 289 292 294 296 296 297 297 298 299 299 300 301 302 302 302 302 303 303 303 304 304 305 305 305 305 305 304 304 303 304 304 304 305 305 305 305 305 305 304 304 303 302 302 302 302 301 300 299 298 299 298 298 298 298 297
270 271 272 272 272 272 272 272 272 272 272 271 270 271 271 269 266 268 270 273 277 279 280 279 279 279 281 284 285 286 288 291 293 295 296 297 298 298 299 299 299 300 301 302 302 302 302 302 302 303 304 304 304 305 305 304 303 303 304 304 304 304 304 304 304 304 304 305 304 303 302 302 302 302 303 302 300 298 298 299 299 298 298 298 297
270 270 271 271 271 272 271 271 271 271 271 272 271 271 271 270 269 268 266 265 269 273 275 277 277 276 277 280 284 285 286 288 291 294 295 296 298 298 298 299 299 300 301 301 301 301 302 302 302 303 303 304 304 305 305 304 303 303 304 303 303 302 302 303 303 303 304 303 302 302 301 301 301 302 303 303 301 298 297 298 298 299 299 298 297
269 270 270 270 270 271 271 271 270 270 271 272 272 271 271 271 270 270 268 267 268 270 272 275 276 276 276 279 282 284 284 284 288 292 293 294 296 297 296 297 297 298 299 300 300 300 301 301 302 302 303 303 304 304 304 304 304 304 304 303 303 302 302 302 303 302 302 302 302 301 300 299 299 299 300 301 300 299 298 298 298 298 298 298 297
269 269 269 269 270 270 271 271 270 270 270 271 272 271 272 272 271 271 270 270 269 269 270 273 274 275 276 277 279 281 281 283 287 290 291 292 293 293 293 293 294 295 296 298 299 299 300 300 301 301 302 302 302 303 303 303 304 304 304 304 303 303 303 303 303 302 302 301 301 300 299 298 298 297 297 298 298 298 298 298 298 298 297 297 297
269 269 269 269 269 269 270 270 270 270 270 271 271 271 271 271 271 271 271 271 271 270 270 270 269 268 268 271 275 278 281 284 288 288 288 289 289 288 288 289 291 292 293 294 296 297 298 299 300 300 300 301 302 302 302 301 302 302 303 303 304 303 303 303 303 303 302 301 301 300 300 298 297 297 297 297 297 296 296 297 296 296 296 296 296
269 269 268 268 269 269 269 269 270 270 270 270 270 271 271 271 271 271 271 271 271 271 270 270 268 265 264 267 271 276 279 280 280 280 281 282 283 284 285 287 287 288 289 290 292 294 296 297 298 299 299 299 300 300 300 300 300 301 301 301 302 302 302 302 302 302 302 301 301 300 300 299 298 297 297 297 296 296 296 296 296 296 295 295 295
268 268 268 268 268 268 269 269 269 269 269 268 269 269 270 270 270 270 271 270 270 271 270 269 268 267 265 265 268 272 274 274 273 274 276 278 280 281 283 284 284 285 285 287 288 290 292 294 296 297 298 298 298 299 299 299 299 300 299 299 300 300 301 302 302 303 302 302 301 300 299 299 298 297 297 297 297 297 296 296 296 297 296 296 296
268 268 268 268 268 268 268 268 268 268 268 268 268 268 268 269 269 269 270 270 270 270 270 270 269 269 268 268 269 271 272 272 272 273 275 276 277 279 279 280 281 283 283 284 286 287 288 290 292 294 295 296 297 297 298 298 298 298 298 298 298 298 299 299 300 301 302 302 301 300 300 299 298 298 298 298 298 297 296 296 297 297 297 296 296
268 268 268 268 268 269 268 268 268 268 268 267 267 267 267 268 268 268 269 269 270 270 270 270 270 271 271 271 271 273 273 273 273 273 274 275 277 277 277 278 279 280 281 283 284 284 285 287 289 291 293 294 295 296 296 297 297 297 297 297 298 297 297 297 298 299 300 300 300 301 301 300 300 300 300 300 298 298 297 296 296 296 296 296 295
267 268 268 268 268 268 268 268 268 268 268 267 267 267 267 267 267 268 268 268 269 269 269 270 270 271 272 272 272 273 274 274 274 274 274 275 276 277 277 278 278 279 280 281 281 282 283 284 285 287 289 291 292 293 294 295 296 296 296 297 297 297 297 297 297 297 298 298 299 299 299 299 299 300 299 299 298 298 297 296 296 296 296 295 295
267 267 267 268 268 268 268 268 268 268 268 267 267 267 267 267 267 267 267 268 268 268 268 269 269 270 271 271 272 273 273 273 273 274 274 274 275 275 276 277 278 279 280 280 280 281 281 282 283 284 285 287 289 290 291 292 294 294 295 296 296 296 297 297 297 297 297 297 297 297 297 297 298 298 297 297 296 297 296 296 296 296 296 295 295
267 267 267 267 267 267 268 268 267 267 268 268 267 267 267 267 267 267 267 267 267 267 268 268 268 269 269 270 271 271 271 271 272 272 273 273 273 273 273 274 276 277 279 279 280 281 281 281 281 282 283 284 285 287 288 289 291 292 293 294 294 295 296 296 296 296 296 297 297 297 297 297 297 297 297 297 296 296 296 296 296 296 295 295 295
267 267 267 267 267 267 267 267 267 267 267 267 267 267 267 267 267 266 266 267 267 267 267 267 268 268 269 269 269 269 269 270 270 271 271 271 272 272 272 273 274 276 277 278 278 280 280 281 281 281 281 282 283 284 285 286 288 289 290 291 292 293 293 294 295 295 295 296 296 296 296 296 296 296 297 297 296 296 296 296 296 296 296 295 295
267 267 267 267 267 267 267 267 267 267 267 267 267 267 267 267 267 266 266 266 267 267 267 267 267 268 268 268 268 268 269 269 269 270 270 270 271 271 272 273 274 274 275 276 277 278 279 279 280 280 280 281 282 282 283 284 285 286 287 288 289 290 291 292 293 293 294 294 295 295 295 295 295 296 296 296 296 296 296 296 296 296 295 295 295
267 267 267 267 267 267 267 267 267 267 267 267 267 267 267 267 267 266 266 266 266 267 267 267 267 267 267 268 268 268 268 268 269 269 269 270 270 271 271 272 273 273 274 275 276 277 278 278 279 279 279 280 281 281 282 283 284 285 285 286 286 287 288 290 291 292 292 293 293 293 294 294 294 294 294 294 294 294 294 294 295 294 294 294 294
266 266 266 266 266 266 266 266 266 267 267 267 267 267 267 267 267 267 267 266 266 266 266 267 267 267 267 267 267 267 268 268 268 268 269 269 269 270 270 271 272 272 273 273 274 275 276 277 278 278 278 279 279 280 280 281 282 282 283 283 284 285 286 288 289 289 290 291 291 291 291 292 292 292 292 292 293 293 293 293 293 293 293 293 293
266 266 266 266 266 266 266 266 266 266 266 266 267 267 267 267 267 267 267 267 266 266 266 266 266 267 267 267 267 267 267 268 268 268 268 269 269 269 270 270 271 271 272 272 272 273 275 276 276 276 277 277 278 278 279 279 279 280 280 281 282 283 284 286 286 287 287 288 289 290 290 290 290 290 290 290 290 290 290 291 291 291 291 291 290
266 266 266 266 266 266 266 266 266 266 266 266 266 266 266 267 267 267 267 267 267 267 266 266 266 266 266 266 266 267 267 267 267 267 268 268 268 269 269 269 270 270 271 271 271 271 273 274 275 275 276 276 276 277 277 277 278 278 279 280 281 282 282 283 284 284 285 286 286 287 287 288 288 288 288 288 288 288 288 288 288 288 288 288 288
Wind_Speed
54 55 56 56 57 59 60 59 57 57 57 55 52 50 47 44 42 41 40 38 36 37 38 37 35 34 31 28 25 26 29 32 34 35 34 34 34 33 32 30 29 32 39 44 41 43 64 68 64 64 61 59 60 60 62 60 59 61 62 63 64 62 60 60 58 53 51 53 56 57 57 58 56 53 53 53 53 54 53 51 51 49 47 44 42
55 56 57 57 58 60 61 60 58 58 57 56 52 50 48 45 42 40 40 38 37 37 37 36 35 34 33 31 28 25 26 28 32 34 33 34 35 34 33 31 30 31 35 41 42 40 57 67 64 64 62 60 61 61 62 61 60 61 62 63 64 63 62 60 58 57 54 52 54 59 61 59 56 55 54 54 55 56 55 54 52 50 46 42 40
54 56 57 58 59 60 60 59 57 57 57 55 53 51 49 46 41 39 39 38 37 36 35 35 35 35 35 33 29 25 23 24 29 33 33 33 34 34 33 32 30 30 33 38 39 39 54 67 64 65 63 60 61 62 62 62 62 62 62 62 63 62 62 61 59 60 60 54 52 58 63 60 57 56 55 55 56 56 56 54 50 46 44 41 40
55 57 58 59 60 61 60 58 56 57 58 57 55 52 49 46 42 39 38 38 38 36 34 34 34 34 35 35 30 25 22 23 27 30 31 33 34 35 34 34 32 30 32 36 36 38 50 65 65 66 65 61 62 63 63 63 62 63 63 62 63 62 61 61 59 59 62 58 52 56 62 62 58 57 58 57 57 57 57 54 49 46 45 44 42
56 57 58 60 61 61 61 60 56 55 57 57 55 52 49 46 42 39 38 37 37 36 34 33 33 33 35 35 32 25 21 23 27 28 29 31 33 34 35 35 33 31 31 35 35 37 48 63 64 65 66 63 64 64 63 64 63 63 64 62 61 62 61 60 57 57 62 61 56 55 58 61 60 59 60 60 60 60 58 56 52 49 48 47 44
56 57 58 60 61 63 64 61 54 53 56 57 55 51 49 46 43 39 37 35 33 33 32 32 33 33 35 36 33 28 23 22 26 27 28 30 32 33 33 34 34 31 31 35 36 38 47 63 64 64 66 64 65 66 64 65 64 63 64 62 60 61 61 59 56 55 58 62 61 57 57 61 61 60 62 63 64 64 61 57 55 52 51 49 46
57 57 58 59 59 61 63 60 56 56 58 57 54 51 48 46 44 39 34 32 32 33 34 35 34 35 36 37 36 32 27 24 25 27 29 31 34 35 33 32 33 31 30 35 37 37 44 62 66 64 68 67 67 68 65 65 65 64 65 63 61 61 59 57 56 54 55 59 62 61 59 61 62 62 63 63 63 64 63 60 57 55 53 50 47
58 58 60 61 62 64 65 62 58 58 59 58 55 50 48 48 47 42 38 36 37 38 38 37 36 36 36 37 37 35 31 29 27 26 28 31 34 36 34 30 31 31 30 34 37 37 39 56 67 67 69 69 67 69 68 66 65 64 63 63 62 61 60 58 58 56 56 59 61 63 62 61 61 61 62 64 63 62 63 62 60 57 54 51 47
58 59 60 62 63 65 65 60 56 56 58 58 54 49 46 46 47 45 42 40 39 40 39 37 36 36 35 36 37 36 34 33 30 28 28 30 33 36 34 30 29 30 30 33 38 36 36 49 66 68 70 70 68 69 69 67 65 64 63 63 63 62 61 59 59 58 58 60 60 62 64 63 63 63 64 67 67 64 62 60 59 58 54 50 46
58 59 60 62 63 63 64 62 60 60 61 59 57 54 49 46 45 45 43 41 39 38 37 35 34 35 35 35 36 37 37 37 34 32 32 32 34 36 35 31 30 29 28 32 36 34 33 44 65 69 69 70 67 67 68 66 66 65 64 65 65 64 61 59 60 60 60 61 63 65 67 67 68 69 69 69 67 64 61 58 57 55 51 49 47
58 59 60 62 63 64 65 63 59 59 59 56 54 55 54 49 45 44 43 41 39 37 35 35 35 36 36 36 36 36 38 40 37 36 35 34 34 36 37 34 32 31 28 29 34 32 30 40 62 68 67 67 66 67 67 66 66 66 65 66 66 65 63 60 61 61 60 62 65 67 68 69 71 71 70 68 66 64 61 59 56 53 51 51 49
58 59 59 61 63 64 64 62 59 61 64 60 52 50 51 50 47 45 43 40 38 37 35 34 34 34 34 35 36 36 37 40 40 39 39 37 35 35 38 37 35 33 30 28 33 32 28 37 58 66 65 68 67 67 68 66 66 66 66 67 66 65 65 62 62 63 62 61 63 66 68 69 70 70 68 67 66 63 60 58 56 55 54 53 52
57 58 60 62 63 64 64 62 61 64 67 65 59 54 51 49 46 45 43 41 38 37 35 33 32 31 31 33 35 35 36 37 39 41 41 40 38 37 37 38 37 36 32 29 34 33 27 34 55 64 64 67 68 67 67 66 66 66 66 66 66 64 64 63 61 63 63 61 60 61 64 66 69 69 66 64 63 61 60 58 56 56 56 55 54
57 58 60 61 62 66 66 61 59 60 59 57 58 58 55 50 46 43 42 40 38 36 34 32 31 30 31 33 34 34 36 36 38 41 41 40 40 38 38 38 38 38 34 31 34 35 29 32 51 63 62 65 67 66 66 66 66 66 65 65 66 64 63 63 61 60 59 58 56 56 57 59 61 61 58 56 55 57 58 57 56 57 56 55 52
57 58 60 62 63 65 65 64 64 64 61 56 53 52 51 49 46 44 41 39 38 37 35 32 31 30 30 32 33 35 36 36 36 40 41 37 35 36 38 38 38 38 36 33 34 36 29 31 49 63 62 64 68 67 66 67 67 66 65 65 66 65 64 65 63 60 57 56 57 56 54 55 54 52 49 48 48 49 50 51 54 56 56 54 51
56 58 60 62 63 64 65 66 66 64 62 59 54 51 49 45 42 41 40 38 36 36 35 33 32 31 30 30 32 35 36 35 34 37 39 35 31 32 36 38 37 37 37 34 34 36 31 30 45 63 63 63 67 67 67 68 67 67 65 64 65 64 63 63 62 60 57 56 57 55 53 52 51 49 48 48 48 49 49 51 55 58 58 56 54
56 58 60 61 63 65 65 66 66 63 61 58 55 52 49 45 40 37 38 38 35 33 33 32 31 31 31 29 30 32 33 32 31 33 36 35 32 32 34 36 36 36 37 35 34 37 34 29 42 62 66 64 66 67 67 68 67 66 65 64 63 62 61 60 58 57 55 54 53 52 51 48 45 45 48 50 50 51 53 56 59 59 59 57 56
55 57 59 61 62 64 64 63 64 64 62 58 55 53 49 44 40 36 35 36 34 31 31 31 30 29 28 28 29 30 32 31 28 29 32 33 34 35 36 36 36 36 36 35 34 37 36 31 40 59 66 64 66 68 67 68 68 67 66 64 63 63 62 60 58 56 54 52 51 51 50 47 43 42 46 50 51 52 53 55 56 58 59 59 58
55 56 58 60 61 62 63 63 63 62 61 58 56 53 49 44 39 34 32 33 32 31 30 29 29 27 25 25 27 28 31 30 26 25 28 29 30 33 33 34 35 35 35 34 34 38 38 33 38 57 65 64 66 68 68 68 68 68 68 66 65 64 63 61 59 57 56 56 54 53 52 50 47 46 49 52 54 54 53 52 53 55 57 59 58
54 55 57 59 60 61 62 61 61 60 59 57 55 53 48 43 38 33 29 30 30 31 29 28 27 26 24 24 25 26 28 27 23 23 25 26 27 28 30 32 34 34 34 34 34 38 40 35 38 54 63 63 65 67 66 67 68 68 69 69 67 66 63 60 59 59 59 59 57 55 54 53 52 52 54 56 56 55 53 52 51 51 52 55 59
53 54 56 58 59 61 61 59 59 58 56 55 54 50 42 37 35 32 30 29 30 30 28 25 25 24 21 22 23 23 24 24 22 20 21 24 26 28 30 32 33 33 33 33 34 38 41 37 40 53 61 61 62 64 65 66 67 68 70 70 68 66 63 61 61 60 59 58 57 55 55 54 53 53 54 54 54 52 52 52 51 48 47 50 54
52 54 55 57 58 60 60 58 58 57 55 53 51 46 38 33 32 31 29 30 30 30 28 25 23 22 19 19 21 22 21 21 20 20 21 24 27 29 30 32 32 32 33 34 35 39 42 40 42 53 62 61 61 63 64 65 66 68 70 70 66 63 63 63 62 61 60 58 57 57 56 56 55 55 54 53 52 51 50 51 50 48 46 46 44
51 53 54 56 57 59 60 59 57 56 55 53 50 45 39 35 33 30 29 30 32 34 32 27 21 19 18 18 18 19 18 19 21 23 25 27 29 29 30 31 31 32 35 36 37 40 42 40 43 53 62 63 62 63 63 65 67 68 69 68 64 61 62 63 62 61 60 59 59 59 59 58 58 57 56 55 53 52 51 51 50 48 47 46 42
50 52 53 55 57 58 59 59 58 57 55 53 50 44 39 36 33 31 31 32 33 36 37 31 22 16 17 19 20 20 21 22 23 25 26 27 28 28 29 31 33 34 36 37 38 40 40 40 43 52 62 64 63 62 63 64 66 67 67 66 64 61 62 63 62 62 61 60 61 61 61 61 60 59 58 56 54 52 50 49 47 46 46 47 47
49 51 52 54 56 58 59 59 59 58 56 55 50 44 40 38 35 33 33 32 32 34 38 36 28 21 20 21 22 22 22 23 24 24 24 25 27 29 31 32 34 35 37 38 38 40 40 41 44 51 59 64 63 62 62 64 65 66 67 66 62 60 61 63 63 63 63 64 64 64 63 62 61 60 59 56 53 51 50 48 47 47 48 49 51
48 49 51 53 54 57 59 59 59 59 57 55 50 42 39 39 38 37 35 32 31 33 36 35 30 27 27 26 25 24 23 23 22 21 20 22 25 28 31 33 34 35 36 38 39 39 39 41 45 50 57 62 63 62 62 62 63 65 65 64 62 60 61 63 64 65 66 67 66 64 63 62 60 59 57 55 54 52 50 48 48 49 51 53 53
47 48 50 52 53 56 57 58 59 59 58 57 52 43 39 38 38 38 36 34 33 35 35 33 28 24 26 27 28 28 27 26 24 22 19 19 23 26 29 31 33 33 35 37 38 38 40 43 46 50 55 60 63 63 62 61 61 62 61 61 61 63 63 64 65 67 67 66 65 62 60 59 58 58 57 56 55 54 51 49 49 50 51 53 54
44 46 48 50 52 54 55 56 58 59 59 57 53 47 42 41 38 35 34 34 34 35 34 32 29 23 20 21 24 26 28 28 26 23 20 18 19 22 26 29 31 33 36 39 39 39 41 44 47 51 55 58 60 60 59 59 59 60 59 58 59 62 64 64 64 65 65 64 62 60 58 58 59 59 59 58 56 55 53 52 51 51 51 54 56
43 44 45 48 50 52 54 54 55 57 58 58 55 49 45 43 39 35 31 28 27 28 29 29 28 22 17 17 19 21 26 29 26 22 21 18 17 19 23 27 31 34 37 39 40 41 43 46 49 51 54 57 58 57 56 56 58 60 60 59 59 60 62 62 62 63 64 63 61 60 60 60 59 59 59 58 57 56 55 55 54 52 53 55 57
42 42 44 46 48 50 52 53 54 54 55 57 57 53 47 41 37 34 32 28 22 18 19 22 22 17 13 14 14 14 20 27 26 21 19 18 16 16 19 23 28 33 36 38 40 43 45 47 51 53 56 58 58 57 56 57 58 60 60 60 60 61 62 63 64 64 64 63 62 61 60 60 59 59 59 59 58 57 57 56 56 55 56 58 59
41 41 42 43 45 47 49 50 52 53 54 55 55 56 53 44 36 32 29 29 26 20 14 14 14 11 10 12 12 12 16 22 23 19 17 16 14 14 16 18 23 30 35 38 41 45 47 49 52 54 56 58 58 57 57 57 58 59 58 58 59 62 64 65 65 64 63 62 61 60 60 60 59 59 59 59 58 58 58 57 57 57 58 59 60
38 39 40 41 42 44 45 47 50 52 53 54 54 54 55 53 46 37 28 27 30 28 20 16 15 13 10 11 12 12 12 15 17 17 15 13 11 12 12 14 19 27 34 39 44 46 48 50 52 54 56 57 57 57 57 57 57 58 58 59 59 61 64 65 65 64 63 62 61 60 59 59 59 59 59 58 57 58 58 58 59 60 59 59 59
36 36 37 39 40 41 43 45 48 50 51 52 53 53 53 55 55 50 37 28 25 25 24 23 24 21 14 11 14 15 11 9 13 14 12 9 9 11 11 12 18 26 33 41 46 47 49 51 51 52 55 56 56 56 56 56 56 57 58 60 61 62 64 64 63 63 63 62 61 60 59 58 58 58 58 57 57 58 60 61 61 61 60 60 60
33 34 35 36 37 39 41 43 45 47 48 49 51 52 53 53 53 54 52 44 34 30 30 30 32 32 25 19 19 19 15 10 9 10 9 6 7 10 10 10 17 25 32 40 46 46 47 49 50 51 53 54 54 55 55 55 55 56 58 59 60 61 61 61 60 61 62 62 61 59 59 58 58 58 58 57 57 58 60 62 62 62 62 62 61
32 32 33 34 35 36 38 40 43 45 45 46 48 50 52 54 53 52 55 55 50 45 41 38 40 40 35 28 26 24 23 20 12 7 5 3 6 10 10 12 19 27 32 37 42 44 45 46 46 48 51 52 52 54 55 54 55 56 56 57 56 56 58 60 60 61 61 60 59 59 58 58 58 59 58 58 59 60 61 62 63 63 64 63 61
31 31 32 33 33 34 35 37 40 42 42 43 46 48 49 52 54 54 54 55 54 52 48 44 43 42 39 34 29 28 30 29 20 10 8 7 7 11 14 15 19 22 24 28 33 36 39 41 42 44 46 48 50 52 53 54 55 55 55 55 55 55 57 59 60 60 59 59 59 58 56 56 57 58 58 58 60 62 63 63 63 63 64 63 62
30 31 31 32 32 33 33 35 37 39 40 41 44 46 48 49 51 54 56 57 56 55 54 52 49 48 47 41 35 32 33 29 20 15 17 17 15 17 20 21 19 17 17 18 21 25 29 32 34 38 41 44 46 47 49 51 53 54 54 54 55 56 57 58 58 59 58 58 57 56 55 54 54 55 57 58 60 61 62 63 63 63 63 62 61
27 29 30 30 31 32 33 34 35 37 39 42 43 44 46 48 49 51 54 56 56 56 57 57 58 58 56 52 45 39 33 25 21 22 25 26 26 28 29 27 24 22 19 17 17 19 22 25 27 30 34 38 40 43 44 46 48 50 52 54 54 55 55 55 56 57 58 57 57 57 56 55 54 55 56 57 58 59 59 59 59 59 58 57 58
26 27 27 28 30 31 32 34 35 37 39 41 43 44 45 47 48 50 51 53 55 56 57 59 60 58 56 54 51 48 44 40 40 41 40 36 35 34 33 31 30 28 26 23 21 19 19 21 23 25 28 31 34 37 39 42 43 45 48 50 51 52 53 53 54 55 57 57 57 57 57 57 57 56 57 57 57 57 57 56 56 56 55 55 57
25 26 26 27 28 30 31 33 35 37 39 40 41 43 44 45 47 48 49 51 52 54 55 57 58 56 54 54 53 52 52 53 53 50 46 42 40 37 35 35 34 33 31 29 26 24 21 19 19 21 24 27 30 32 34 36 38 41 43 45 46 48 51 53 54 55 56 56 56 56 56 57 57 57 57 58 58 58 57 57 57 57 57 57 59
24 24 25 26 27 28 30 32 33 35 37 39 40 41 42 43 44 46 47 48 49 51 52 52 53 53 53 52 52 52 53 54 54 51 49 47 44 41 40 38 35 34 33 32 30 28 26 23 21 20 21 23 25 28 29 30 32 35 37 39 41 43 45 48 51 53 54 54 54 54 55 55 56 56 57 58 58 57 56 56 57 57 57 57 57
22 23 24 25 26 27 29 31 32 33 34 36 38 39 40 41 42 43 45 45 47 48 49 49 49 49 50 51 51 51 52 53 53 53 51 48 46 44 43 40 38 36 35 34 33 31 29 26 24 21 20 20 21 22 24 25 27 28 30 33 35 37 38 41 44 47 49 50 51 52 52 53 54 55 55 56 56 55 55 54 54 54 54 54 53
21 22 23 24 25 27 28 29 30 32 33 34 36 37 38 39 40 41 42 43 45 46 47 47 47 47 48 49 50 50 52 53 53 53 51 49 47 46 43 41 40 38 36 36 36 34 32 30 28 25 23 21 19 19 19 20 22 24 26 28 30 32 33 35 38 40 43 46 47 48 49 50 51 52 52 52 52 54 54 52 51 51 51 51 51
19 20 21 22 23 25 26 27 28 29 30 32 33 34 36 37 38 39 40 41 43 44 44 45 46 47 47 48 49 50 52 52 51 51 51 50 50 49 46 43 41 38 36 36 36 35 34 34 32 29 27 25 22 20 19 18 19 21 23 25 27 29 30 31 33 35 37 40 42 44 44 45 46 47 47 46 47 49 50 50 49 49 49 49 49
17 18 19 20 22 22 24 25 26 27 28 29 31 32 34 35 37 38 39 39 40 41 42 43 44 45 46 47 48 50 50 50 50 50 50 50 50 50 48 45 42 39 38 37 35 34 34 34 33 32 31 29 26 23 21 18 17 17 18 19 21 23 24 26 28 30 31 33 35 37 39 41 42 43 43 43 43 44 45 46 47 47 47 47 48
16 17 18 19 20 21 22 23 24 25 26 28 29 30 31 33 34 36 37 38 38 40 40 41 41 42 43 45 46 46 46 47 47 47 47 47 47 46 44 43 42 41 40 38 36 34 34 34 34 34 33 31 29 27 25 22 20 17 15 14 13 14 15 17 19 22 24 26 27 29 31 33 34 36 37 38 39 40 41 41 42 43 44 45 45
15 16 17 18 19 20 21 21 22 23 25 26 27 28 29 30 32 33 34 35 36 37 38 38 38 40 41 42 43 43 43 43 44 44 44 44 43 42 42 42 42 41 40 39 37 35 34 34 35 35 34 32 31 29 27 26 23 21 19 16 14 11 9 9 10 12 14 17 19 21 22 24 26 28 30 31 33 35 36 37 38 39 40 41 41
13 14 16 17 18 19 19 20 21 22 23 24 25 26 27 28 29 30 31 33 34 35 36 36 37 37 38 39 39 39 39 40 40 40 40 41 41 40 40 40 40 40 39 38 37 35 34 34 34 35 34 33 32 31 30 28 26 24 22 20 18 15 11 8 7 7 8 10 11 13 14 17 19 22 24 25 27 28 30 31 32 33 35 36 36
12 13 14 16 17 18 19 20 20 21 22 22 23 24 25 26 27 28 30 31 31 32 33 34 34 35 36 36 37 36 36 37 38 38 38 38 38 38 38 38 37 38 38 38 37 35 34 34 34 35 34 34 33 33 32 30 29 27 25 23 20 17 14 11 9 8 7 6 8 9 9 10 12 14 16 18 19 20 22 24 25 26 27 29 29
12 12 13 14 15 16 17 18 19 20 20 21 22 23 24 25 26 27 28 29 29 30 30 31 32 33 33 34 34 34 35 36 36 36 36 36 36 35 35 36 36 37 37 37 36 35 33 33 34 34 34 34 34 33 33 33 32 30 27 24 21 19 16 14 13 12 9 7 7 7 8 8 9 10 10 11 13 14 15 16 18 19 20 21 22
11 12 12 13 13 15 15 16 17 18 19 20 21 22 22 24 25 25 26 27 28 28 29 29 29 30 31 31 32 32 33 33 34 34 34 34 34 34 34 35 35 36 35 35 36 35 34 33 33 33 32 33 33 33 32 32 31 30 28 25 23 22 20 18 16 15 13 10 9 8 7 8 9 10 10 11 11 11 12 12 13 14 15 16 17
Wind_Direction
331 331 331 331 330 330 330 329 327 327 325 321 316 314 313 308 303 303 301 298 294 291 290 286 283 284 283 282 285 286 281 271 270 277 276 278 282 280 284 280 263 260 252 250 259 232 204 201 202 201 201 199 199 201 202 202 202 201 200 199 198 198 196 193 190 187 187 194 197 197 197 197 195 195 193 190 189 188 185 186 189 190 192 191 191
331 332 331 332 332 331 330 329 328 327 325 322 318 315 314 310 305 302 299 296 295 292 289 287 283 281 279 276 279 284 285 277 270 274 276 276 281 280 282 282 267 257 252 250 259 242 207 199 201 202 202 201 199 201 202 202 202 202 201 200 200 200 198 194 190 186 185 188 193 195 196 195 194 195 195 193 190 188 187 191 194 193 192 193 193
331 332 332 332 331 330 330 329 329 328 327 323 319 317 315 313 307 302 300 297 295 293 290 289 285 280 277 274 277 281 283 279 271 271 274 275 279 279 279 282 270 256 251 248 257 248 213 201 201 201 200 200 200 201 203 203 203 203 202 201 201 200 198 195 193 187 184 185 187 189 191 193 193 193 194 195 193 190 190 195 198 195 194 196 198
332 332 333 332 332 332 330 330 329 330 328 324 320 317 315 314 309 303 299 296 294 290 287 287 285 281 277 273 274 278 280 281 273 269 272 274 278 278 277 280 272 258 250 246 253 250 217 200 199 199 199 199 199 201 203 202 202 203 202 201 201 200 197 196 197 192 188 187 186 186 188 190 191 191 192 193 194 193 193 196 199 197 196 200 201
332 332 333 332 333 333 333 332 329 328 328 325 321 318 315 314 311 305 300 296 293 290 287 286 285 282 277 272 270 270 274 280 275 268 272 275 278 278 275 278 274 261 250 244 251 251 221 201 197 198 198 198 198 199 202 201 200 201 201 200 200 201 199 198 199 197 193 191 188 185 187 188 189 190 191 192 193 195 196 197 198 198 199 201 203
331 332 333 332 332 333 334 334 330 327 328 327 323 319 315 313 312 309 305 301 299 295 290 285 282 281 276 270 267 263 260 270 273 270 273 276 278 278 276 276 274 265 251 242 248 252 225 204 199 199 198 197 198 199 200 199 197 197 198 199 199 200 199 198 198 196 194 193 191 188 188 189 190 190 191 192 193 194 197 199 199 200 201 203 204
332 333 333 333 333 334 333 331 329 328 328 327 323 318 315 316 316 313 306 300 295 291 286 282 277 276 273 268 265 261 254 255 261 264 268 272 275 277 276 275 273 266 252 240 245 254 229 206 201 202 200 199 199 200 200 198 196 196 197 198 199 198 198 197 198 197 195 193 192 191 190 190 191 191 192 194 196 196 197 199 199 201 203 204 205
333 334 334 336 337 338 336 334 332 330 327 327 325 319 316 316 315 310 303 298 294 289 286 284 278 273 270 267 264 261 254 250 251 253 261 269 271 272 273 273 273 267 253 239 241 254 239 210 202 203 203 201 200 200 200 197 195 195 195 196 198 199 199 198 197 197 196 194 192 192 192 192 192 192 192 195 198 199 199 200 200 202 203 203 203
333 334 336 338 339 338 335 332 330 328 326 326 326 320 314 313 312 308 304 301 298 294 289 286 283 276 271 266 264 260 252 247 246 245 252 261 263 266 268 269 275 271 256 242 238 250 249 217 203 204 204 202 200 200 200 198 196 194 194 195 197 198 197 197 196 195 196 194 191 190 191 192 193 194 194 197 200 201 201 201 202 202 202 202 201
333 335 338 340 339 337 335 334 334 334 332 329 326 322 319 317 313 310 307 302 299 297 292 287 285 281 274 268 264 261 252 245 243 241 245 254 258 264 267 267 275 275 261 246 237 244 253 224 205 203 205 202 201 200 200 199 199 198 197 196 197 197 194 194 195 195 194 192 190 189 188 190 194 197 198 198 200 202 201 202 203 201 199 198 199
335 337 340 341 339 338 338 336 333 331 330 329 325 321 322 321 315 310 309 306 301 298 292 286 281 277 273 268 264 262 254 245 242 240 242 249 255 262 266 267 275 276 265 250 236 238 253 230 207 202 205 204 203 202 200 200 201 201 201 201 201 201 198 195 194 195 194 192 191 191 190 191 194 197 199 199 199 201 202 203 204 202 198 198 199
336 338 340 342 341 338 336 334 332 331 333 334 331 326 325 324 319 315 313 310 305 301 295 289 282 277 273 269 265 264 257 248 243 241 241 245 250 257 263 266 273 276 267 251 235 235 252 233 207 201 204 206 205 203 200 200 201 202 203 204 205 207 206 202 198 196 196 194 192 193 194 194 195 196 200 201 200 200 202 203 204 204 204 204 204
337 339 341 342 341 339 338 336 334 332 331 332 332 331 329 325 321 317 314 310 306 302 298 292 287 281 275 269 265 264 261 252 244 241 242 245 247 252 260 264 270 273 267 252 235 232 250 236 208 200 203 204 202 201 199 199 201 201 203 205 206 208 209 206 203 200 199 198 196 195 197 198 197 196 199 201 200 201 202 204 205 207 208 209 209
339 340 341 343 342 341 339 335 333 332 332 331 330 329 328 325 321 318 316 313 308 304 299 293 288 282 275 269 266 265 263 256 248 242 241 244 247 251 258 262 266 268 264 253 237 231 245 237 210 201 203 202 199 199 199 198 198 198 199 201 202 203 204 204 203 202 201 201 200 199 198 200 200 198 197 200 205 207 207 206 208 210 211 213 213
341 342 342 344 343 341 339 337 338 340 339 336 332 329 327 324 320 319 318 315 311 307 303 296 289 282 275 268 264 264 264 259 251 244 240 242 247 252 256 258 261 264 261 254 239 229 238 238 214 204 203 201 199 199 198 197 197 196 195 196 198 199 201 202 203 204 204 204 204 204 202 202 202 202 201 204 209 212 212 212 213 213 214 214 213
343 343 343 344 344 343 342 341 341 341 340 337 335 332 330 325 321 321 320 315 311 308 302 296 290 285 280 271 261 260 263 261 254 246 240 238 243 250 254 254 256 260 258 253 241 228 230 237 216 205 205 204 200 198 198 196 196 196 195 196 197 198 201 204 206 208 210 210 211 211 210 209 209 210 210 209 209 211 214 214 212 211 211 210 210
344 344 344 345 345 346 345 343 341 342 341 339 336 334 331 327 324 323 320 316 313 308 303 297 290 284 281 272 261 260 265 263 256 247 238 234 236 241 247 251 253 257 255 251 243 227 225 234 218 205 205 207 203 199 198 197 197 197 197 197 197 198 201 204 207 210 214 215 214 213 213 213 213 212 210 209 211 213 213 212 210 210 209 207 208
345 345 345 346 347 348 346 344 344 343 342 340 337 335 333 328 325 323 320 317 314 310 306 300 292 285 279 268 260 262 266 264 258 249 238 234 235 238 245 250 253 255 254 250 242 227 222 230 220 206 205 209 206 201 199 199 200 200 199 198 198 199 201 203 204 207 211 213 213 212 213 214 213 211 211 212 215 217 217 216 215 213 211 210 210
345 346 346 347 349 349 348 347 346 344 342 340 338 335 334 332 330 327 322 318 316 312 308 302 294 287 277 267 260 260 263 262 256 245 235 233 235 237 242 247 248 249 249 246 240 226 221 228 220 207 206 209 207 202 201 202 203 202 200 199 198 200 202 204 204 204 205 206 209 211 211 211 211 214 217 217 218 221 223 224 222 218 214 212 211
346 347 347 348 350 351 350 348 347 346 343 339 337 337 337 335 333 331 328 324 320 315 310 302 294 286 276 269 264 261 262 261 252 240 233 232 233 234 237 240 242 244 245 244 238 226 221 225 219 208 206 208 205 202 202 204 205 203 201 200 201 202 203 204 205 205 204 203 205 207 208 209 212 215 216 215 216 219 222 223 225 224 220 216 214
347 348 349 350 352 353 351 349 348 347 343 339 338 340 340 338 336 336 333 330 327 321 313 304 295 289 279 270 265 261 262 262 254 244 237 234 233 234 236 238 240 242 243 242 237 227 220 222 219 209 206 209 208 205 204 206 206 204 203 204 206 205 204 204 204 205 204 204 205 207 209 212 214 216 216 215 217 219 220 221 223 226 225 222 218
348 349 350 352 354 354 353 352 351 349 346 344 343 344 346 347 346 343 339 335 333 328 319 307 299 296 286 274 272 272 271 269 264 255 248 242 238 237 238 238 239 242 243 242 235 225 219 221 219 209 206 211 213 210 208 207 206 206 207 206 206 206 206 205 204 202 203 204 206 208 210 213 214 215 215 217 218 220 220 221 222 224 226 227 224
349 350 351 354 356 356 356 355 353 351 350 349 349 351 352 353 353 353 351 346 340 334 326 314 306 303 289 271 272 276 271 266 264 258 250 244 240 238 238 239 238 240 241 239 231 223 219 221 219 211 207 210 213 212 209 207 207 208 207 205 204 207 208 206 204 203 204 205 207 210 211 212 213 213 214 215 217 217 218 219 221 222 223 224 225
350 351 353 356 357 358 358 358 356 353 353 354 355 356 358 358 357 359 360 353 344 339 332 320 305 296 284 268 262 262 259 257 258 255 249 246 243 240 239 238 236 237 238 237 230 223 220 221 219 212 207 208 211 211 210 209 209 208 206 204 204 205 205 205 205 205 205 206 209 211 212 214 214 215 215 216 216 216 217 218 220 222 222 221 221
352 353 354 358 359 359 360 0 358 357 357 357 358 0 2 3 2 3 3 357 349 347 341 328 307 288 286 288 285 280 275 271 267 261 254 249 246 242 238 236 234 234 236 233 226 221 221 221 219 213 207 207 209 210 209 209 209 206 204 203 202 200 202 205 205 204 205 207 209 211 212 214 215 216 216 216 215 214 215 216 219 220 219 219 219
353 354 356 359 2 1 1 1 360 359 359 359 360 3 7 8 6 5 4 360 356 355 351 340 318 293 285 292 298 299 297 291 285 279 270 258 249 242 238 236 233 232 233 229 222 219 221 220 218 214 208 206 207 208 208 209 208 205 204 203 201 199 201 203 203 204 206 208 209 210 211 212 212 213 214 214 214 214 214 214 216 217 217 217 216
355 356 358 1 3 4 3 2 1 1 1 1 2 5 10 13 10 6 4 2 360 356 353 349 339 315 296 293 295 296 298 298 294 291 287 276 261 248 240 236 233 230 227 223 219 218 220 218 216 214 210 206 206 208 210 210 205 201 201 202 201 202 204 206 207 208 208 209 208 208 208 209 210 211 213 215 216 216 215 214 214 215 216 215 215
357 358 0 3 5 6 5 4 3 2 1 2 5 8 13 14 12 10 9 4 358 353 350 350 349 338 319 307 301 294 290 290 290 289 289 285 272 255 242 235 231 225 219 216 214 214 215 214 212 210 208 204 203 205 207 206 202 200 201 201 201 203 205 207 208 209 209 210 209 207 207 209 211 212 214 215 216 216 215 214 214 215 215 214 213
359 0 2 4 7 9 7 6 7 5 2 2 4 8 15 18 15 13 16 14 5 356 353 352 350 344 329 313 309 305 294 285 282 282 281 279 271 256 241 231 226 221 216 213 210 209 208 207 205 203 201 200 200 200 200 200 200 201 202 202 202 203 204 205 206 207 209 210 209 208 209 210 211 212 213 214 215 216 215 214 214 215 214 214 214
0 2 4 7 9 11 10 9 9 9 8 5 1 2 10 21 25 22 19 21 21 14 6 3 359 352 337 318 313 315 302 288 279 277 276 271 261 248 236 229 224 220 216 212 208 205 203 201 200 199 199 198 198 197 197 198 199 200 200 200 201 202 204 206 208 208 209 208 208 208 209 209 209 210 211 212 213 214 214 214 214 214 215 215 214
2 3 6 9 12 12 13 12 11 12 13 10 6 4 5 12 26 34 31 27 27 26 25 23 17 13 5 348 329 311 296 285 278 276 275 270 256 237 227 224 222 218 215 209 203 201 199 198 197 197 198 198 197 196 196 197 198 198 197 197 198 201 204 207 207 207 207 207 207 207 208 209 210 211 211 211 211 212 212 212 212 214 217 218 216
4 5 7 11 13 14 15 15 15 16 16 15 14 12 9 9 16 25 36 41 35 30 33 38 36 34 33 22 7 347 319 294 281 275 271 265 248 225 217 219 217 213 209 204 199 198 198 198 197 196 197 197 197 197 197 197 198 197 196 196 197 200 204 206 207 207 207 206 206 206 207 209 210 211 211 211 210 211 211 211 212 214 216 218 218
7 7 9 12 14 16 16 17 18 20 20 20 20 19 18 18 16 16 23 37 43 42 44 47 44 41 43 49 42 27 1 315 286 272 263 253 231 210 204 211 213 207 201 198 196 197 197 198 198 197 197 197 197 197 198 198 198 198 199 200 201 202 205 207 207 207 208 209 208 208 208 209 209 210 211 212 212 212 212 213 214 213 214 217 218
10 10 13 15 16 17 18 20 21 23 24 25 25 23 24 25 24 21 22 25 29 35 40 44 45 43 44 53 57 49 39 17 327 284 260 240 208 187 181 195 206 205 201 198 197 196 196 197 197 198 198 198 197 198 199 199 199 199 201 202 203 203 204 205 205 206 208 209 209 208 209 209 209 210 211 212 213 213 213 214 214 214 214 216 216
12 13 16 19 19 19 21 22 24 25 26 26 27 28 28 28 28 28 28 27 26 28 31 37 42 40 40 48 58 57 54 45 19 323 275 226 181 168 164 180 193 196 199 199 198 197 196 196 197 198 198 198 199 201 201 200 200 201 202 202 201 202 203 204 206 207 208 208 208 208 208 208 209 210 212 213 212 212 212 213 214 214 216 216 215
12 14 17 20 21 21 24 26 27 27 27 27 30 31 32 31 31 31 32 32 32 32 31 34 40 41 40 47 55 58 60 58 51 48 67 83 123 143 142 151 167 177 185 192 196 198 199 199 199 200 199 199 200 202 203 202 203 204 204 204 203 203 204 205 206 206 207 207 208 208 207 207 208 208 209 211 213 214 215 215 215 216 216 215 215
13 15 18 21 21 22 24 28 30 30 28 28 31 32 33 33 33 33 34 34 35 36 35 35 37 38 37 40 47 54 60 65 70 79 84 89 100 108 109 114 127 140 153 167 180 190 195 198 200 202 202 201 201 202 203 204 205 205 206 206 206 206 208 208 208 207 207 207 208 208 207 207 208 207 207 208 211 213 214 215 216 216 216 214 214
13 16 19 21 22 22 23 26 29 31 30 30 31 32 33 34 34 35 37 37 36 37 38 38 38 34 30 31 40 50 58 68 77 77 77 81 85 86 89 96 102 106 111 122 143 163 178 187 194 199 202 204 205 206 205 205 205 205 205 207 208 209 210 210 209 209 210 209 209 210 210 209 209 208 208 209 209 210 211 212 213 213 213 212 212
14 17 20 22 22 24 25 26 28 31 32 32 31 31 33 35 34 34 37 38 38 38 39 40 40 37 30 28 37 47 54 58 60 62 65 71 75 77 81 86 89 90 92 98 111 128 149 167 179 187 194 199 202 205 207 207 207 206 205 205 206 207 208 209 209 210 210 210 209 210 210 210 210 210 211 211 211 212 211 211 212 213 213 213 214
15 17 20 22 24 25 27 28 29 31 33 34 33 32 33 35 35 35 36 38 39 40 39 39 40 40 36 33 37 45 52 54 55 57 60 64 68 72 75 78 80 82 84 87 94 103 116 133 152 167 180 188 193 198 202 205 208 208 207 205 204 205 207 209 210 211 211 211 210 210 210 210 211 211 212 214 214 215 214 214 216 217 218 219 220
17 18 19 22 24 25 27 29 31 33 35 35 35 34 33 34 36 37 37 37 39 40 41 41 41 42 43 42 43 47 51 54 56 57 58 60 63 66 69 71 75 78 80 82 85 89 95 105 120 137 156 171 181 188 193 198 202 205 206 206 205 206 207 208 209 210 211 211 211 211 211 211 211 212 214 216 216 216 216 216 218 218 219 220 221
17 18 20 22 23 25 28 30 31 33 35 36 37 36 35 34 35 37 38 38 38 39 41 42 42 43 44 45 46 48 50 53 55 56 57 59 61 63 65 67 70 73 76 79 81 81 83 89 99 112 129 144 159 171 180 186 191 195 198 200 202 204 206 208 209 211 211 211 212 212 213 214 214 215 217 218 217 217 218 218 218 218 219 219 219
18 19 20 22 23 25 27 29 31 31 32 34 37 38 37 36 35 36 38 39 39 39 39 40 41 42 43 43 45 48 50 51 53 54 55 57 58 60 62 64 66 68 71 75 77 78 80 82 86 92 103 116 129 144 156 168 177 183 188 192 195 198 201 204 207 210 212 213 213 213 213 213 214 216 217 217 217 217 218 218 218 219 220 220 220
19 20 21 21 23 25 25 27 29 31 32 33 34 36 37 37 37 36 36 38 39 39 38 38 39 40 41 42 43 45 47 48 49 51 53 54 55 56 56 58 61 64 68 71 74 76 78 79 80 83 88 95 105 118 130 144 158 169 177 185 190 194 197 200 203 206 209 212 213 213 213 213 214 214 214 214 215 216 216 216 217 218 219 220 221
19 20 20 21 23 25 25 26 27 29 30 31 32 33 34 36 37 37 36 37 38 39 38 38 39 39 41 42 43 44 44 45 46 48 49 51 53 53 53 53 55 59 62 66 69 73 75 76 77 79 82 85 90 97 105 117 131 146 159 171 181 187 191 196 200 204 207 210 212 214 215 215 216 216 216 216 216 217 218 218 218 218 219 219 220
17 19 19 19 21 23 25 26 26 26 28 30 30 31 32 33 35 36 36 36 37 37 37 38 38 39 41 42 43 44 44 45 45 47 47 49 50 52 52 53 54 56 58 61 64 68 72 74 75 75 77 79 82 85 89 94 101 110 121 135 151 165 176 186 194 201 205 208 210 213 215 217 218 220 221 221 222 222 222 222 222 221 221 222 222
17 17 17 18 20 21 23 25 26 26 27 28 29 30 31 32 33 34 35 36 37 37 37 37 38 39 41 42 43 44 45 45 46 46 47 48 49 50 51 52 53 54 55 57 58 62 66 70 72 73 74 75 77 79 81 83 85 89 92 96 102 111 130 156 178 190 198 204 209 212 215 218 220 222 223 224 225 226 226 226 226 226 226 226 226
17 15 14 16 18 19 21 23 25 26 27 27 28 29 30 30 31 32 33 34 36 36 36 36 37 38 40 41 42 42 44 45 46 47 47 48 48 48 48 50 52 53 53 54 55 57 60 64 67 69 70 70 71 73 74 75 77 78 79 79 77 77 84 101 130 155 171 184 194 202 209 214 217 219 220 220 221 223 224 225 226 226 227 228 228
15 15 14 13 15 18 20 21 23 26 27 28 27 28 29 29 30 30 31 32 34 34 35 35 35 36 38 40 41 41 42 43 44 45 46 47 48 47 48 49 50 52 52 52 52 53 56 60 62 64 65 66 67 68 69 69 70 70 71 71 71 72 76 84 95 107 125 149 165 175 184 193 200 206 209 210 212 214 216 218 220 221 222 223 223
9 12 13 12 13 16 19 20 22 24 26 28 28 28 28 28 28 29 29 29 30 32 33 34 34 35 36 37 38 38 39 41 41 42 43 45 46 47 47 48 49 50 51 51 50 50 52 55 59 60 61 63 64 65 65 66 66 65 66 69 71 74 76 80 85 88 92 108 134 150 160 168 175 180 185 191 197 202 206 209 212 214 215 216 217
2 5 10 12 12 12 14 17 20 22 23 26 28 28 28 28 28 28 28 27 26 27 29 30 32 33 34 35 36 37 38 39 40 40 40 41 42 44 45 46 48 49 49 50 50 48 47 50 54 56 58 59 60 61 62 64 64 65 66 67 70 72 74 77 79 80 80 84 96 112 129 143 152 159 163 169 176 182 188 194 198 201 205 208 210